Home > Time Zones > World Clock > Weather > Iran > Tehran > Past weeks

Flag Weather past 2 weeks in Tehran, Iran

Now
39 °F

Clear.


Feels Like: 36 °F
Forecast: 34 / 48 °F
Wind: 5 mph from West

Location: Tehran-Mehrabad

Current Time: Nov 29, 2014 at 3:44:37 AM

Latest Report: Nov 29, 2014 at 3:30 AM


Visibility: 10 mi

Pressure: 30.09 "Hg

Humidity: 70%

Dew point: 30 °F

Location of TehranLocation

Historic Weather in Tehran — Graph

°F

Tehran temperature yesterday

Maximum temperature yesterday: 52 °F (at 12:30 PM)
Minimum temperature yesterday: 43 °F (at 11:00 PM)
Average temperature yesterday: 47 °F

Past Weeks' High & Low Weather Summary

 TemperatureHumidityPressure
High63 °F (Nov 16, 1:00 PM)87% (Nov 29, 2:30 AM)30.36 "Hg (Nov 29, 2:30 AM)
Low39 °F (Nov 29, 2:30 AM)21% (Nov 17, 4:30 PM)29.86 "Hg (Nov 23, 6:00 AM)
Average51 °F50%30.13 "Hg
* Reported Nov 14 2:30 AM — Nov 29 2:30 AM, Tehran, Weather by CustomWeather, © 2014

Note: Actual official high and low records may vary slightly from our data, if they occured in-between our weather recording intervals... More about our weather records

Advertising

Tehran weather history for previous 24 hours

 ConditionsComfort  
Time TempWeatherWind HumidityBarometerVisibility
2:30 AM
Nov 29
39 °FPassing clouds.5 mph87%30.09 "HgN/A
2:00 AM41 °FPassing clouds.9 mph76%30.09 "HgN/A
1:30 AM41 °FPassing clouds.9 mph76%30.09 "HgN/A
1:00 AM41 °FPassing clouds.7 mph81%30.09 "HgN/A
12:30 AM43 °FPassing clouds.7 mph76%30.09 "HgN/A
12:00 AM43 °FPassing clouds.7 mph76%30.12 "HgN/A
11:30 PM
Nov 28
43 °FPassing clouds.5 mph81%30.12 "HgN/A
11:00 PM43 °FPassing clouds.7 mph81%30.12 "HgN/A
10:30 PM45 °FPassing clouds.No wind76%30.12 "HgN/A
10:00 PM45 °FPassing clouds.7 mph81%30.12 "HgN/A
9:30 PM45 °FPassing clouds.7 mph81%30.12 "HgN/A
9:00 PM45 °FPassing clouds.5 mph81%30.12 "HgN/A
8:30 PM45 °FPassing clouds.5 mph81%30.12 "HgN/A
8:00 PM45 °FPassing clouds.7 mph81%30.12 "HgN/A
7:30 PM45 °FPassing clouds.7 mph81%30.12 "HgN/A
7:00 PM45 °FPassing clouds.No wind76%30.12 "HgN/A
6:30 PM46 °FPassing clouds.No wind71%30.09 "HgN/A
6:00 PM45 °FPassing clouds.7 mph76%30.09 "HgN/A
5:30 PM45 °FPassing clouds.7 mph76%30.09 "HgN/A
5:00 PM45 °FPartly sunny.7 mph76%30.09 "HgN/A
4:30 PM45 °FSprinkles. Scattered clouds.18 mph76%30.09 "HgN/A
4:00 PM50 °FScattered clouds.7 mph54%30.07 "HgN/A
3:30 PM50 °FScattered clouds.7 mph54%30.07 "HgN/A
3:00 PM52 °FPartly sunny.7 mph50%30.09 "HgN/A
2:30 PM52 °FPartly sunny.7 mph50%30.09 "HgN/A
2:00 PM52 °FPartly sunny.7 mph58%30.12 "HgN/A
1:30 PM52 °FPartly sunny.7 mph58%30.12 "HgN/A
1:00 PM52 °FPartly sunny.7 mph58%30.12 "HgN/A
12:30 PM52 °FPartly sunny.7 mph58%30.12 "HgN/A
12:00 PM50 °FPartly sunny.7 mph62%30.12 "HgN/A
11:30 AM50 °FPartly sunny.9 mph62%30.12 "HgN/A
11:00 AM46 °FPartly sunny.9 mph71%30.15 "HgN/A
10:30 AM46 °FPartly sunny.9 mph71%30.15 "HgN/A
10:00 AM46 °FLight rain. Partly sunny.9 mph71%30.15 "HgN/A
9:30 AM46 °FCool.9 mph66%30.15 "HgN/A
9:00 AM48 °FPartly sunny.12 mph62%30.15 "HgN/A
8:30 AM48 °FPartly sunny.No wind62%30.12 "HgN/A
8:00 AM48 °FPartly sunny.5 mph62%30.12 "HgN/A
7:30 AM46 °FPartly sunny.5 mph71%30.12 "HgN/A
7:00 AM46 °FPassing clouds.7 mph66%30.12 "HgN/A
6:30 AM46 °FPartly cloudy.9 mph66%30.09 "HgN/A
6:00 AM46 °FPartly cloudy.7 mph66%30.09 "HgN/A
5:30 AM46 °FPartly cloudy.9 mph71%30.09 "HgN/A
5:00 AM45 °FPartly cloudy.9 mph76%30.09 "HgN/A
4:30 AM45 °FPartly cloudy.9 mph76%30.09 "HgN/A
4:00 AM45 °FPartly cloudy.5 mph76%30.09 "HgN/A
3:30 AM45 °FThunderstorms. Partly cloudy.9 mph81%30.12 "Hg4 mi
3:00 AM45 °FThunderstorms. Partly cloudy.12 mph81%30.12 "HgN/A
Weather by CustomWeather, © 2014

See weather overviewHow to use our weather pages